Date,TemperatureHighF,TemperatureAvgF,TemperatureLowF,DewpointHighF,DewpointAvgF,DewpointLowF,HumidityHigh,HumidityAvg,HumidityLow,PressureMaxIn,PressureMinIn,WindSpeedMaxMPH,WindSpeedAvgMPH,GustSpeedMaxMPH,PrecipitationSumIn
2013-3-1,48.6,42.2,37.0,36.5,32.1,28.4,74,67,59,29.44,29.33,4,0,0,0.00
2013-3-2,44.7,37.6,31.3,30.7,28.9,28.0,89,72,56,29.44,29.40,4,0,0,0.00
2013-3-3,42.6,36.3,29.4,26.0,23.7,20.4,71,61,50,29.41,29.31,4,0,0,0.01
2013-3-4,42.9,36.7,27.4,26.4,24.1,20.5,76,61,51,29.56,29.41,9,0,0,0.00
2013-3-5,48.4,42.7,30.9,32.1,29.5,24.7,78,60,52,29.68,29.63,5,0,0,0.00
2013-3-6,40.2,39.1,36.8,35.0,32.7,29.3,86,78,72,29.62,29.54,17,4,17,0.00
2013-3-7,38.2,34.9,31.9,33.5,31.7,28.0,96,88,75,29.74,29.65,8,0,0,0.05
2013-3-8,37.9,33.0,29.8,33.6,30.8,28.8,96,92,72,29.85,29.67,4,0,0,0.27
2013-3-9,53.5,45.7,40.8,32.7,27.1,22.9,62,48,42,29.98,29.89,4,0,0,0.10
2013-3-10,47.1,41.7,36.8,37.7,35.5,33.6,90,79,67,30.06,29.97,9,1,0,0.00
2013-3-11,52.3,47.2,38.1,47.7,43.9,36.5,98,89,77,29.93,29.78,10,1,0,0.00
2013-3-12,52.9,50.0,43.4,52.3,48.9,39.9,99,96,87,29.64,29.34,14,2,14,0.80
2013-3-13,52.9,48.8,42.5,39.7,33.8,28.0,74,56,44,29.55,29.44,9,0,0,0.00
2013-3-14,38.4,34.9,28.1,20.2,16.9,12.0,56,48,38,29.61,29.50,10,0,0,0.00
2013-3-15,43.4,40.1,32.9,32.3,26.0,17.4,69,57,48,29.63,29.39,8,1,0,0.00
2013-3-16,37.7,35.1,31.8,30.0,25.9,23.4,93,70,57,29.54,29.48,4,0,0,0.03
2013-3-17,38.8,34.9,27.2,23.9,21.8,19.1,79,59,48,29.89,29.74,3,0,0,0.02
2013-3-18,33.3,30.0,25.1,30.9,21.7,11.0,98,73,53,30.09,29.70,13,2,13,0.00
2013-3-19,38.9,34.7,31.4,38.4,24.4,-99.9,99,96,82,29.70,29.36,15,1,15,0.54
2013-3-20,44.9,36.6,29.2,28.7,24.9,22.1,83,63,45,29.54,29.45,8,0,0,0.04
2013-3-21,38.8,34.1,30.5,28.4,22.0,17.0,87,62,45,29.51,29.29,3,0,0,0.00
2013-3-22,43.7,34.8,25.9,25.6,21.9,16.3,76,59,47,29.54,29.39,8,0,0,0.00
2013-3-23,47.1,38.3,30.0,28.5,24.5,21.6,76,58,46,29.60,29.48,5,0,0,0.00
2013-3-24,48.9,39.5,28.6,28.9,25.7,21.2,76,58,44,29.61,29.38,6,0,0,0.00
2013-3-25,41.1,37.5,35.7,35.4,30.3,26.5,94,76,57,29.39,29.14,16,1,16,0.05
2013-3-26,56.6,42.3,34.7,36.6,31.4,28.0,84,66,44,29.53,29.25,6,0,0,0.00
2013-3-27,56.0,43.5,32.2,35.1,30.0,25.1,77,60,38,29.63,29.52,5,0,0,0.00
2013-3-28,53.0,43.8,34.4,37.3,33.4,29.5,83,67,53,29.77,29.62,6,0,0,0.00
2013-3-29,58.5,46.9,36.8,37.5,33.0,30.3,77,59,42,29.80,29.71,6,0,0,0.00
2013-3-30,60.4,47.8,34.9,37.5,32.2,26.8,84,58,32,29.83,29.73,5,0,0,0.00
2013-3-31,53.7,44.7,34.3,43.2,36.9,30.9,97,75,51,29.79,29.33,19,1,19,0.17